Weather Roundup
Issued by NWS Springfield, MO

Home | Current Version | Previous Version | Text Only | Print | Product List | Glossary On
Versions: 1 2 3 4 5 6 7 8 9 10 11 12 13 14 15 16 17 18 19 20 21 22 23 24 25 26 27 28 29 30 31 32 33 34 35 36 37 38 39 40 41 42 43 44 45 46 47 48 49 50
956
NZUS99 KSGF 120157
HRRSGF

HOURLY WEATHER
NATIONAL WEATHER SERVICE SPRINGFIELD MO
800 PM CST MON DEC 11 2017

......SGF CWA......

CITY           SKY/WX    TMP DP  RH WIND       PRES   REMARKS
SPRINGFIELD    CLOUDY    48  27  44 NW17      30.07R
JOPLIN         CLOUDY    50  29  44 NW14G26   30.13R
ROLLA          CLOUDY    48  31  51 NW25G38   30.01R
BRANSON        MOCLDY    50  25  37 NW12G21   30.07R

......SURROUNDING SGF CWA......

CITY           SKY/WX    TMP DP  RH WIND       PRES   REMARKS
CHANUTE        PTCLDY    48  28  46 NW16G26   30.17R
PARSONS        CLOUDY    50  28  42 N12       30.18R
COFFEYVILLE    CLOUDY    52  27  38 N20G26    30.18R
EMPORIA        CLEAR     45  29  53 NW28G36   30.20R
HARRISON AR    PTCLDY    51  24  34 NW13G25   30.06R

......KANSAS AND MISSOURI......

CITY           SKY/WX    TMP DP  RH WIND       PRES   REMARKS
KANSAS CTY INT CLOUDY    43  29  57 N24G33    30.15R
SEDALIA        CLOUDY    48  34  58 NW22G29   30.08R
ST JOSEPH      PTCLDY    40  28  62 N24G35    30.18R WCI  29
ST LOUIS       CLOUDY    47  33  58 NW15G26   29.94R
WICHITA        CLOUDY    48  28  46 N23G36    30.26R
TOPEKA         MOCLDY    44  34  67 NW18G29   30.20R
OLATHE         MOCLDY    42  33  70 N17G33    30.14R

......TENNESSEE......

CITY           SKY/WX    TMP DP  RH WIND       PRES   REMARKS
MEMPHIS        NOT AVBL
NASHVILLE      CLOUDY    55  30  38 SW10      29.86F

......ARKANSAS.......

CITY           SKY/WX    TMP DP  RH WIND       PRES   REMARKS
FAYETTEVILLE   PTCLDY    52  22  30 N15G22    30.12R
FT SMITH       CLEAR     58  17  20 NW9       30.09R
LITTLE ROCK    CLEAR     55  24  30 W8        29.99R

......OKLAHOMA.......

CITY           SKY/WX    TMP DP  RH WIND       PRES   REMARKS
TULSA          PTCLDY    50  21  32 N10       30.18R
PONCA CITY     PTCLDY    51  24  34 N16       30.23R
MCALESTER      PTCLDY    57  21  24 NW8       30.13R
OKLAHOMA CITY  CLEAR     47  20  34 NW8       30.20R

......IOWA............

CITY           SKY/WX    TMP DP  RH WIND       PRES   REMARKS
DES MOINES     NOT AVBL
QUAD CITIES    CLOUDY    37  33  85 NW15G25   29.92R WCI  28

......ILLINOIS........

CITY           SKY/WX    TMP DP  RH WIND       PRES   REMARKS
QUINCY         NOT AVBL
CHICAGO        CLOUDY    33  28  81 NW17      29.79R WCI  22




USA.gov is the U.S. government's official web portal to all federal, state and local government web resources and services.